My Meet Scores
McKenna VanTilburg, Flipstar Gymnastics Academy - MyMeetScores.com
Top100 | Top Teams | Upcoming Meets | Completed Meets | Latest | Add Scores | Help| Support | Bookmark and Share

McKenna VanTilburg, Flipstar Gymnastics Academy
Personal Bests
LevelVault BarsBeamFloorAA
39.4259.500 9.2009.17536.975
49.3509.625 9.4509.65037.975
69.3759.550 9.6509.70037.825
Meet Scores
Date Meet Team Session Level Division Vault Bars Beam Floor AA
2022-04-01 Level 6-7-8 State 2022 Flip Star Gymnastics Academy 11 6 Jr D 9.375 5 9.350 4T 9.400 5 9.700 3 37.825 2
2022-03-10 Lucky Invite Flip Star Gymnastics Academy A01 6 Older 9.050 4T 9.125 6T 8.900 17T 9.450 9 36.525 6
2022-03-04 2022 Flip'r S.O.U.L. Invitational Flip Star Gymnastics Academy 9 6 jr 8.650 3T 9.125 4 9.075 11 9.625 4 36.475 5
2022-02-18 BIG Classic 2022 Flipstar Gymnastics Academy 8A 6 Junior D 8.650 5 8.950 10T 0.000 12 9.325 7T 26.925 12
2022-01-21 King Arthur Invitational 2022 Flipstar Gymnastics Academy 3 6 Sr A 9.250 4T 9.375 2 0.000 17T 9.275 5 27.900 16
2021-12-10 Crossroads Classic Flip Star Gymnastics Academy 3 6 Junior 9.150 6T 9.550 2 9.525 1 9.475 5T 37.700 2
2021-12-03 Flipstar's Home for the Holidays Flipstar Gymnastics Academy 1 6 Sr A 8.600 3 9.275 2 9.650 1 9.400 3 36.925 2
2021-04-15 Illinois level 6 & Xcel Silver State Champion Flip Star Gymnastics Academy 07 6 Multiple 8.850 20* 9.250 18T 9.400 16T 9.500 12T 37.000 12T
2021-03-12 LUCKY INVITATIONAL Flip Star Gymnastics Academy A03 6 Jr B 8.525 15 8.650 16 8.600 19 9.600 3T 35.375 16
2021-03-05 NGC Flip'r S.O.U.L. Invitational Flipstar Gymnastics Academy 10 6 Jr A 9.200 2 8.775 8T 8.400 11 9.475 2 35.850 8
2021-02-26 Kinetic Classic 2021 Flipstar Gymnastics Academy 12 6 Younger 8.950 19T 7.000 23 8.750 19 9.450 14T 34.150 23
2021-02-19 BIG Classic 2021 Flipstar Gymnastics Academy 1B 6 Child B 9.100 1 8.325 7 8.825 9 9.375 3 35.625 5
2021-01-21 King Arthur Invitational Flipstar Gymnastics Academy 1 6 JR 8.875 2 8.200 5 9.350 2 9.400 1 35.825 2
2020-12-11 Crossroad Classic 2020 Flipstar Gymnastics Academy 1 6 Child 8.850 6T 8.650 6 9.250 5 9.075 8 35.825 3
2020-12-04 Flipstar's Home for the Holidays Flipstar Gymnastics Academy 4 6 All 8.375 8 7.300 11 7.825 12 9.350 3 32.850 12
2020-03-06 Illinois Level 4 State Championships Flipstar Gymnastics Academy 5 4 Jr C 9.350 6T 9.600 3 9.450 8T 9.575 3T 37.975 3
2020-02-21 Kinetic Classic Flipstar Gymnastics Academy 06 4 Middle 8.950 17T 9.625 8T 9.350 18T 9.550 3T 37.475 4
2020-02-14 Big Classic Flipstar Gymnastics Academy 4B 4 Child D 9.250 2T 9.300 7T 9.100 34T 9.650 1 37.300 1
2020-02-07 IGI Chicago Style Meet Flipstar Gymnastics Academy 121 4 C 8.925 9T 9.100 5 9.075 2T 9.300 10T 36.400 5
2020-01-24 King Arthur Invitational Flipstar Gymnastics Academy 1 4 Sr A 9.300 1 9.350 4T 9.375 2 9.175 2 37.200 1
2019-12-13 Crossroads Classic Flipstar Gymnastics Academy 1 4 Ch C 9.350 2 9.350 4 9.425 1 9.375 1 37.500 1
2019-12-07 Home for the Holidays 2019 Flipstar Gymnastics Academy 4 4 Sr A 8.825 7 9.450 4 8.475 4 9.025 3 35.775 4
2019-11-08 Illinois Judges Cup Flipstar Gymnastics Academy G5 4 All Ages 9.175 3 9.200 11 8.700 30 9.400 1T 36.475 3
2019-03-22 Illinois Gymnastics State Championships Flipstar Gymnastics Academy 6 4 YT A 9.250 6 9.475 9 9.175 17 9.150 12T 37.050 8
2019-03-01 2019 MEGA Spring Invite Flipstar Gymnastics Academy All 4 All Ages 9.250 5T 9.150 17T 9.150 37T 8.350 119T 35.900 32
2019-02-23 Kinetic Classic 2019 Flipstar Gymnastics Academy 1 4 Younger 8.750 13T 8.875 23 9.150 11 9.125 13T 35.900 14
2019-02-08 Midwest Twisters Harley Meet Womens Flipstar Gymnastics Academy T09 4 9a 8.850 4 8.875 6 8.900 7 9.150 4 35.775 6
2019-01-25 King Arthur Invitational Flipstar Gymnastics Academy 1 4 Jr C 8.400 5 8.450 11 8.550 11T 9.000 5 34.400 11
2018-12-07 Horton Invite Flipstar Gymnastics Academy 1 4 Chr B 8.425 14 9.000 10 8.925 8 9.175 6 35.525 9
2018-05-03 Illinois USA Gymnastics Level 3 State Championships Flipstar Gymnastics Academy 4 3 Youth B 9.425 20T 9.500 4T 8.875 14 9.175 15T 36.975 10T
2018-02-23 Kinetic Classic Flipstar Gymnastics Academy 4 3 Middle 8.850 56T 9.200 40T 9.000 50 8.775 76* 35.825 58T
2018-01-26 King Arthur Invitational Flipstar Gymnastics Academy 5 3 JR B 8.700 21 9.425 2 9.200 3T 9.075 5 36.400 7
2017-11-10 Illinois NAWGJ Judges Cup 2017 Flipstar Gymnastics Academy S6 3 All Ages 9.425 7T 8.850 8T 7.750 44 8.800 34T 34.825 22
Get your scores on
a t-shirt, pin, or hoodie